Location: College Park
(38.9810°N, 76.9370°W)
Time: 13:38:46
(UTC-05:00)

N. Korean satellite - Pass Details

Date: 11 February 2018
Orbit: 459 x 514 km, 97.2° (Epoch: 22 February)

Event Time Altitude Azimuth Distance (km) Brightness Sun altitude
Rises 18:01:52 0° 167° (SSE) 2,477 10.2 -4.8°
Reaches altitude 10° 18:03:54 10° 168° (SSE) 1,603 9.2 -5.2°
Maximum altitude 18:07:20 89° 248° (WSW) 465 6.5 -5.8°
Drops below altitude 10° 18:10:48 10° 348° (NNW) 1,611 9.2 -6.5°
Sets 18:12:51 0° 349° (NNW) 2,491 10.2 -6.9°
